Вернуться в каталог

STARLINK-37287

АктивенСвязьSSO
NORAD 68684·PAYLOAD·🇺🇸 United States

Запущен Apr 11, 2026 с Vandenberg Space Force Base

Loading…

Ближайшие Пролёты (ближайшие 24 часа)

TLE

СвежийSource: CelesTrak SupGP

Эпоха: Sep 14, 2026, 21:19 UTC

1 68684C 26077Y   26257.88868056  .00005141  00000+0  15966-3 0  2572
2 68684  97.2848 127.9264 0001684  93.3976  34.0003 15.33423550    11

Отслеживайте STARLINK-37287 в реальном времени с AllMySat

Download on the App Store